Simultaneous Nadir Overpasses (SNOs) Predictions

Prediction of SNOs between GOES-14 and NPP Satellite Orbit:

Table of predicted SNOs for the next 14.0 days since TLE Epoch: 5/7/2022
Index Date Time (GOES-14) GOES-14 Lat,Lon NPP Lat,Lon Distance(km) Time Diff (sec)
1 05/07/2022 08:13:58 0.10,-104.44 -0.48,-101.93 287.39 80
2 05/08/2022 20:35:54 -0.08,-104.57 -0.70,-107.23 303.21 80
3 05/09/2022 20:14:28 -0.10,-104.56 0.31,-102.69 213.11 80
4 05/11/2022 08:36:14 0.08,-104.43 0.87,-107.95 402.05 80
5 05/12/2022 08:20:09 0.09,-104.43 -0.14,-103.42 115.79 80
6 05/13/2022 20:42:05 -0.06,-104.59 -0.97,-108.73 472.02 80
7 05/14/2022 20:20:39 -0.07,-104.58 -0.01,-104.19 44.34 80
8 05/17/2022 08:23:40 0.06,-104.42 0.17,-104.91 56.55 80
9 05/18/2022 08:07:34 0.07,-104.42 -0.85,-100.38 460.75 80
10 05/19/2022 20:29:29 -0.04,-104.58 -0.31,-105.68 126.86 80
11 05/20/2022 20:08:04 -0.06,-104.56 0.71,-101.15 389.22 80
